星链-37950(STARLINK-37950)

导读

STARLINK-37950(NORAD编号69560)是美国太空探索技术公司(SpaceX)星链星座的低轨通信卫星,隶属于星链全球互联网组网项目。该卫星通过猎鹰9号火箭批量发射入轨,运行于高度500-600公里的近地轨道,轨道倾角约53-70度。其核心功能是为全球偏远、地面网络未覆盖区域提供高速低延迟互联网接入,同时支持应急通信、海事及航空通信等场景。截至2026年6月,该卫星在轨运行正常,是星链全球组网超10600颗活跃卫星的组成部分,助力星链提升全球通信覆盖密度。

基本信息
目录编号:
69560
目录名称:
STARLINK-37950
国际标识:
2026-135Q
轨道中心:
EARTH
卫星名称:
星链-37950
卫星全名:
星链-37950(STARLINK-37950)
卫星状态:
在轨 (已飞行12 天)
发射日期:
2026-06-15 UTC
国别 :
美国 (US)
星等 :
--
轨道信息
数据来源 国际轨道数据
星历时间: 2026-06-27T08:16:45+0800
19小时前
查看轨道信息
半长轴: 6705.986km
偏心率: 0.0001172
轨道倾角: 97.284°
近地点辐角 99.520°
升交点赤经 205.614°
平近点角 260.620°
近地点: 327.063km
远地点: 328.635km
周期: 91.086分钟
每日圈数: 15.809161
详细信息
固有亮度:
5
最大亮度:
2.5
卫星平台:
Starlink V1.0
覆盖范围:
全球
运营商:
太空探索技术公司
运营商所在国:
美国
制造商(研发单位):
太空探索技术公司
制造商所在国:
美国
使用方式:
暂无
卫星简介
Starlink 计划是 SpaceX 推出的全球卫星互联网项目,通过发射低轨道卫星,为全球尤其是偏远地区提供高速、低延迟的互联网服务。自 2019 年起,Starlink 已部署数千颗卫星,旨在缩小全球数字鸿沟,推动互联网普及。该项目还为军事、航空等行业提供通信支持,带来广泛经济效益。
2D轨道图
3D轨道图
轨道高度分析图
轨道倾角分析图
轨道综合分析图
查看轨道综合分析图